GW3650 Weather Reports


time (UTC)temp
C
wind
direction
speed
KPH
gust
KPH
rain 1hr
cm
rain 24hr
cm
rain mn
cm
humidity
%
barometer
mb
20260506163018 11 0 6.4 17.7 0.00 0.00 0.00 77 1032.0
20260506160017 11 0 6.4 17.7 0.00 0.00 0.00 76 1032.1
20260506153018 12 0 8.0 19.3 0.00 0.00 0.00 74 1031.8
20260506150017 12 0 6.4 16.1 0.00 0.00 0.00 72 1032.1
20260506143018 12 0 6.4 19.3 0.00 0.00 0.00 70 1032.2
20260506140018 12 0 4.8 17.7 0.00 0.00 0.00 69 1031.9
20260506133018 13 0 4.8 9.7 0.00 0.00 0.00 68 1031.6
20260506130018 13 0 4.8 12.9 0.00 0.00 0.00 67 1031.5
20260506123017 14 0 4.8 14.5 0.00 0.00 0.00 64 1031.2
20260506120018 15 135 8.0 19.3 0.00 0.00 0.00 63 1031.0
20260506113017 15 135 9.7 19.3 0.00 0.00 0.00 62 1030.8
20260506110038 16 135 9.7 17.7 0.00 0.00 0.00 59 1030.7
20260506103017 16 135 9.7 17.7 0.00 0.00 0.00 58 1030.5
20260506100018 17 135 6.4 12.9 0.00 0.00 0.00 57 1030.3
20260506093016 18 135 9.7 22.5 0.00 0.00 0.00 53 1029.9
20260506090016 19 135 12.9 25.7 0.00 0.00 0.00 51 1029.7
20260506083017 20 135 12.9 24.1 0.00 0.00 0.00 52 1029.7
20260506073037 20 135 14.5 38.6 0.00 0.00 0.00 54 1029.6
20260506043016 18 113 19.3 32.2 0.00 0.00 0.00 66 1030.8
20260506040016 16 113 14.5 27.4 0.00 0.00 0.00 71 1031.2
20260506033016 15 135 16.1 25.7 0.00 0.00 0.00 75 1031.6
20260506030016 15 135 16.1 30.6 0.00 0.00 0.00 76 1032.1
20260506023016 13 113 19.3 32.2 0.00 0.00 0.00 80 1032.3
20260506020016 13 135 19.3 29.0 0.00 0.00 0.00 81 1032.3
20260506013038 12 0 16.1 29.0 0.00 0.00 0.00 87 1032.2
20260506010018 11 0 16.1 27.4 0.00 0.00 0.00 89 1032.1
20260506003038 11 0 9.7 22.5 0.00 0.00 0.00 90 1031.7
20260506000038 10 0 6.4 14.5 0.00 0.00 0.00 91 1031.2
20260505233018 10 0 3.2 14.5 0.00 0.00 0.00 91 1030.9
20260505230018 9 0 4.8 12.9 0.00 0.00 0.00 90 1030.6
20260505223018 9 0 6.4 14.5 0.00 0.00 0.00 89 1030.3
20260505220018 9 0 4.8 14.5 0.00 0.00 0.00 88 1030.1
20260505213018 10 0 6.4 16.1 0.00 0.00 0.00 87 1030.0
20260505210038 10 0 3.2 8.0 0.00 0.00 0.00 86 1030.0
20260505203017 10 0 3.2 9.7 0.00 0.00 0.00 85 1029.7
20260505200017 10 0 4.8 14.5 0.00 0.00 0.00 85 1029.5
20260505193018 10 0 4.8 14.5 0.00 0.00 0.00 86 1029.5
20260505190018 10 0 3.2 9.7 0.00 0.00 0.00 86 1029.2
20260505183017 10 0 3.2 9.7 0.00 0.00 0.00 85 1029.3
20260505180017 10 0 3.2 6.4 0.00 0.00 0.00 84 1029.3
20260505173017 10 0 3.2 9.7 0.00 0.00 0.00 83 1029.4
20260505170018 11 0 3.2 12.9 0.00 0.00 0.00 83 1029.1